Regional Weather Roundup
Issued by NWS

Home | Current Version | Previous Version | Graphics & Text | Print | Product List | Glossary On
Versions: 1 2 3 4 5 6 7 8 9 10 11 12 13 14 15 16 17 18 19 20 21 22 23 24 25 26 27 28 29 30 31 32 33 34 35 36 37 38 39 40 41 42 43 44 45 46 47 48 49 50
000
ASUS43 KOAX 221710
RWRNE

WEATHER ROUNDUP FOR NEBRASKA
NATIONAL WEATHER SERVICE OMAHA NE
1100 AM CST MON JAN 22 2018

NOTES: SATELLITE DATA IS BEING USED TO AUGMENT CLOUD COVER ABOVE
       12000 FEET.
       "FAIR" INDICATES FEW OR NO CLOUDS BELOW 12,000 FEET WITH NO
       SIGNIFICANT WEATHER AND/OR OBSTRUCTIONS TO VISIBILITY.


NEZ001>004-019>022-054>056-221800-
NEBRASKA PANHANDLE

CITY           SKY/WX    TMP DP  RH WIND       PRES   REMARKS
SCOTTSBLUFF    SUNNY     21  11  65 W10       30.02S WCI  10
ALLIANCE       MOSUNNY   24  15  68 NW10      29.97R WCI  14
CHADRON        MOSUNNY   18   9  68 W10       30.03R WCI   6
GORDON         FAIR      23  14  68 W8        29.97S WCI  14
KIMBALL        SUNNY     25  13  60 NW17G25   29.99S WCI  11
SIDNEY         MOSUNNY   24  12  60 NW20      29.98R WCI  10
$$

NEZ057>060-069>072-079>082-221800-
SOUTHWEST NEBRASKA

CITY           SKY/WX    TMP DP  RH WIND       PRES   REMARKS
NORTH PLATTE   CLOUDY    29  21  72 NW21G31   29.89R WCI  16
IMPERIAL       MOSUNNY   26  18  71 NW23G35   29.94R WCI  11
LEXINGTON      CLOUDY    30  25  81 NW16      29.81R WCI  18
MCCOOK         CLOUDY    30  24  78 NW25G38   29.88R WCI  16
OGALLALA       PTSUNNY   28  20  72 NW22      29.94R WCI  14
$$

NEZ005>010-023>029-035>040-094-221800-
NORTH CENTRAL NEBRASKA

CITY           SKY/WX    TMP DP  RH WIND       PRES   REMARKS
VALENTINE      CLOUDY    26  21  81 NW22G30   29.89S WCI  12
AINSWORTH      CLOUDY    26  23  89 NW22G28   29.87R WCI  11
BROKEN BOW     CLOUDY    29  22  75 NW29G37   29.79R WCI  14
O`NEILL        CLOUDY    24  23  96 N25G35    29.81R WCI   7
ORD            CLOUDY    27  23  85 N24G38    29.77R FOG     WCI  12
THEDFORD       CLOUDY    28  23  81 NW22G29   29.89R WCI  14
$$

NEZ041-046>049-061>064-073>077-083>087-221800-
SOUTH CENTRAL NEBRASKA

CITY           SKY/WX    TMP DP  RH WIND       PRES   REMARKS
GRAND ISLAND   FOG       26  26 100 NW40G48   29.64R VSB 1/4 WCI   7
AURORA         CLOUDY    28  28  98 N40G47    29.62R WCI  10
HASTINGS       FOG       28  26  92 NW37G53   29.65R VSB 3/4 WCI  11
HEBRON         LGT SNOW  31  29  91 N25G40    29.58R VSB 1   WCI  18
HOLDREGE         N/A     30  27  86 NW10      29.75R WCI  21
KEARNEY        SNOW      28  27  93 N26G37    29.74R VSB 1/2 WCI  13
YORK           HVY SNOW  27  27 100 N22G35    29.58R VSB 1/4 WCI  12
$$

NEZ011>018-030>034-042>045-221800-
NORTHEAST NEBRASKA

CITY           SKY/WX    TMP DP  RH WIND       PRES   REMARKS
NORFOLK        FOG       25  23  92 NW37G48   29.61R VSB 1/4 WCI   7
ALBION         SNOW      25  23  91 N35G40    29.66S VSB 1/4 WCI   8
BLAIR          LGT SNOW  33  32  97 N22G28    29.43S VSB 3/4 WCI  20
COLUMBUS       SNOW      27  27 100 MISG      29.58R VSB 1/4
FREMONT        CLOUDY    29  28  97 N20G28    29.51R WCI  16
TEKAMAH        HVY SNOW  30  30 100 N37G49    29.49S VSB 1/4 WCI  14
WAYNE            N/A     27  26  96 N37G43    29.60S WCI   9
$$

NEZ050>053-065>068-078-088>093-221800-
SOUTHEAST NEBRASKA

CITY           SKY/WX    TMP DP  RH WIND       PRES   REMARKS
LINCOLN        LGT SNOW  30  27  88 N39G51    29.49S VSB 3/4 WCI  13
OMAHA EPPLEY   LGT SNOW  34  32  92 N21G28    29.44R FOG     WCI  22
BEATRICE       CLOUDY    33  31  92 N28G38    29.49R WCI  19
FALLS CITY       N/A     35  34  96 MISG      29.41R
NEBRASKA CITY  CLOUDY    34  34 100 N16       29.41S WCI  24
PLATTSMOUTH    CLOUDY    34  34 100 NW13G18   29.42S WCI  25
$$

NEZ044-045-051>053-067-221800-
OMAHA AREA

CITY           SKY/WX    TMP DP  RH WIND       PRES   REMARKS
OMAHA EPPLEY   LGT SNOW  34  32  92 N21G28    29.44R FOG     WCI  22
BLAIR          LGT SNOW  33  32  97 N22G28    29.43S VSB 3/4 WCI  20
FREMONT        CLOUDY    29  28  97 N20G28    29.51R WCI  16
MILLARD        LGT SNOW  35  33  93 N14G21    29.45R WCI  25
OFFUTT AFB     LGT RAIN  36  34  93 N16G23    29.42R WCI  26
PLATTSMOUTH    CLOUDY    34  34 100 NW13G18   29.42S WCI  25
WAHOO          SNOW      30  28  94 N36G45    29.49R VSB 1/4 WCI  14
$$



USA.gov is the U.S. government's official web portal to all federal, state and local government web resources and services.